Location: Brunsbüttel
(52.3892°N, 10.6138°E)
Time: 21:32:22
(UTC+00:00)

Cosmos 1328 Rocket - Pass Details

Date: 19 May 2025
Orbit: 596 x 618 km, 82.5° (Epoch: 15 June)

Event Time Altitude Azimuth Distance (km) Brightness Sun altitude
Exits shadow 23:23:13 32° 149° (SSE) 1,049 4.3 -17.6°
Maximum altitude 23:24:50 49° 94° (E) 785 4.0 -17.6°
Drops below altitude 10° 23:29:01 10° 20° (NNE) 1,963 7.3 -17.6°
Sets 23:31:17 0° 15° (NNE) 2,876 8.6 -17.5°
